Time,TemperatureF,DewpointF,PressureIn,WindDirection,WindDirectionDegrees,WindSpeedMPH,WindSpeedGustMPH,Humidity,HourlyPrecipIn,Conditions,Clouds,dailyrainin,SoftwareType,DateUTC
2013-04-20 00:00:00,66.7,62.0,29.60,South,185,2.0,15.0,85,0.00,OVC,,0.00,WeatherDisplay:10.37,2013-04-20 04:00:00,
2013-04-20 00:05:00,66.8,62.2,29.61,SSW,194,3.0,8.0,85,0.00,OVC,,0.00,WeatherDisplay:10.37,2013-04-20 04:05:00,
2013-04-20 00:10:00,67.0,62.3,29.60,SSW,192,2.0,13.0,85,0.00,OVC,,0.00,WeatherDisplay:10.37,2013-04-20 04:10:00,
2013-04-20 00:15:00,67.1,62.1,29.60,SSW,198,3.0,8.0,84,0.00,OVC,,0.00,WeatherDisplay:10.37,2013-04-20 04:15:00,
2013-04-20 00:20:00,67.2,62.2,29.61,SSW,197,3.0,7.0,84,0.00,OVC,,0.00,WeatherDisplay:10.37,2013-04-20 04:20:00,
2013-04-20 00:25:00,67.2,62.2,29.61,SSW,192,2.0,7.0,84,0.00,OVC,,0.00,WeatherDisplay:10.37,2013-04-20 04:25:00,
2013-04-20 00:30:00,67.3,62.3,29.61,SSW,206,3.0,8.0,84,0.00,OVC,,0.00,WeatherDisplay:10.37,2013-04-20 04:30:00,
2013-04-20 00:35:00,67.3,62.6,29.61,SW,229,2.0,7.0,85,0.00,OVC,,0.00,WeatherDisplay:10.37,2013-04-20 04:35:00,
2013-04-20 00:40:00,67.0,63.0,29.61,SW,221,3.0,9.0,87,0.01,RA,,0.01,WeatherDisplay:10.37,2013-04-20 04:40:00,
2013-04-20 00:45:00,66.4,62.8,29.61,SSW,205,1.0,4.0,88,0.01,RA,,0.02,WeatherDisplay:10.37,2013-04-20 04:45:00,
2013-04-20 00:50:00,65.8,62.7,29.61,South,190,2.0,4.0,90,0.01,RA,,0.03,WeatherDisplay:10.37,2013-04-20 04:50:00,
2013-04-20 00:55:00,65.2,62.6,29.61,South,179,2.0,5.0,91,0.00,RA,,0.03,WeatherDisplay:10.37,2013-04-20 04:55:00,
2013-04-20 01:00:00,64.9,62.2,29.61,South,180,0.0,3.0,91,0.00,OVC,,0.03,WeatherDisplay:10.37,2013-04-20 05:00:00,
2013-04-20 01:05:00,64.6,62.2,29.60,SSE,164,1.0,7.0,92,0.01,-RA,,0.04,WeatherDisplay:10.37,2013-04-20 05:05:00,
2013-04-20 01:10:00,64.4,62.3,29.60,SSE,161,1.0,3.0,93,0.00,-RA,,0.04,WeatherDisplay:10.37,2013-04-20 05:10:00,
2013-04-20 01:15:00,64.2,62.2,29.61,South,182,3.0,8.0,93,0.00,-RA,,0.04,WeatherDisplay:10.37,2013-04-20 05:15:00,
2013-04-20 01:20:00,64.1,62.1,29.60,South,184,1.0,3.0,93,0.00,-RA,,0.04,WeatherDisplay:10.37,2013-04-20 05:20:00,
2013-04-20 01:25:00,64.1,62.0,29.61,SSW,206,0.0,5.0,93,0.00,-RA,,0.04,WeatherDisplay:10.37,2013-04-20 05:25:00,
2013-04-20 01:30:00,64.0,62.2,29.60,SSW,192,0.0,3.0,94,0.00,-RA,,0.04,WeatherDisplay:10.37,2013-04-20 05:30:00,
2013-04-20 01:35:00,63.9,62.1,29.60,South,186,2.0,10.0,94,0.00,-RA,,0.04,WeatherDisplay:10.37,2013-04-20 05:35:00,
2013-04-20 01:40:00,63.8,62.0,29.59,South,189,0.0,3.0,94,0.00,-RA,,0.04,WeatherDisplay:10.37,2013-04-20 05:40:00,
2013-04-20 01:45:00,63.7,61.9,29.60,South,174,0.0,2.0,94,0.01,-RA,,0.05,WeatherDisplay:10.37,2013-04-20 05:45:00,
2013-04-20 01:50:00,63.6,61.8,29.59,SE,133,0.0,3.0,94,0.00,-RA,,0.05,WeatherDisplay:10.37,2013-04-20 05:50:00,
2013-04-20 01:55:00,63.6,61.8,29.59,SSE,153,0.0,3.0,94,0.00,-RA,,0.05,WeatherDisplay:10.37,2013-04-20 05:55:00,
2013-04-20 02:00:00,63.5,61.7,29.59,SSW,202,0.0,1.0,94,0.00,-RA,,0.05,WeatherDisplay:10.37,2013-04-20 06:00:00,
2013-04-20 02:05:00,63.5,61.7,29.59,South,186,0.0,6.0,94,0.00,-RA,,0.05,WeatherDisplay:10.37,2013-04-20 06:05:00,
2013-04-20 02:10:00,63.5,61.7,29.59,South,174,0.0,4.0,94,0.00,-RA,,0.05,WeatherDisplay:10.37,2013-04-20 06:10:00,
2013-04-20 02:15:00,63.4,61.6,29.58,South,180,0.0,3.0,94,0.00,-RA,,0.05,WeatherDisplay:10.37,2013-04-20 06:15:00,
2013-04-20 02:20:00,63.3,61.5,29.58,South,189,0.0,0.0,94,0.00,-RA,,0.05,WeatherDisplay:10.37,2013-04-20 06:20:00,
2013-04-20 02:25:00,63.2,61.4,29.58,SSW,192,0.0,0.0,94,0.00,-RA,,0.05,WeatherDisplay:10.37,2013-04-20 06:25:00,
2013-04-20 02:30:00,63.2,61.4,29.58,SSW,192,2.0,6.0,94,0.00,-RA,,0.05,WeatherDisplay:10.37,2013-04-20 06:30:00,
2013-04-20 02:35:00,63.1,61.6,29.58,South,181,0.0,5.0,95,0.00,-RA,,0.05,WeatherDisplay:10.37,2013-04-20 06:35:00,
2013-04-20 02:40:00,63.1,61.6,29.57,SSE,151,0.0,3.0,95,0.00,-RA,,0.05,WeatherDisplay:10.37,2013-04-20 06:40:00,
2013-04-20 02:45:00,63.0,61.5,29.58,SSE,160,1.0,5.0,95,0.00,-RA,,0.05,WeatherDisplay:10.37,2013-04-20 06:45:00,
2013-04-20 02:50:00,63.0,61.5,29.58,SSW,199,0.0,2.0,95,0.00,-RA,,0.05,WeatherDisplay:10.37,2013-04-20 06:50:00,
2013-04-20 02:55:00,62.7,60.9,29.59,WSW,240,1.0,8.0,94,0.03,-RA,,0.08,WeatherDisplay:10.37,2013-04-20 06:55:00,
2013-04-20 03:00:00,61.7,59.0,29.59,West,274,1.0,9.0,91,0.05,-RA,,0.13,WeatherDisplay:10.37,2013-04-20 07:00:00,
2013-04-20 03:05:00,60.8,58.5,29.59,NW,309,0.0,5.0,92,0.01,-RA,,0.14,WeatherDisplay:10.37,2013-04-20 07:05:00,
2013-04-20 03:10:00,60.3,57.9,29.60,NW,304,0.0,5.0,92,0.01,-RA,,0.15,WeatherDisplay:10.37,2013-04-20 07:10:00,
2013-04-20 03:15:00,59.7,57.0,29.60,NW,325,1.0,4.0,91,0.02,-RA,,0.17,WeatherDisplay:10.37,2013-04-20 07:15:00,
2013-04-20 03:20:00,58.8,55.8,29.60,NNW,332,0.0,6.0,90,0.00,-RA,,0.17,WeatherDisplay:10.37,2013-04-20 07:20:00,
2013-04-20 03:25:00,58.1,55.5,29.61,NW,304,1.0,3.0,91,0.00,-RA,,0.17,WeatherDisplay:10.37,2013-04-20 07:25:00,
2013-04-20 03:30:00,57.6,55.3,29.61,West,273,1.0,4.0,92,0.01,-RA,,0.18,WeatherDisplay:10.37,2013-04-20 07:30:00,
2013-04-20 03:35:00,56.9,53.7,29.61,WNW,289,3.0,5.0,89,0.01,-RA,,0.19,WeatherDisplay:10.37,2013-04-20 07:35:00,
2013-04-20 03:40:00,56.0,52.8,29.61,WNW,287,2.0,5.0,89,0.00,-RA,,0.19,WeatherDisplay:10.37,2013-04-20 07:40:00,
2013-04-20 03:45:00,55.3,52.1,29.61,WNW,288,2.0,5.0,89,0.01,-RA,,0.20,WeatherDisplay:10.37,2013-04-20 07:45:00,
2013-04-20 03:50:00,54.6,51.7,29.61,WNW,293,0.0,7.0,90,0.00,RA,,0.20,WeatherDisplay:10.37,2013-04-20 07:50:00,
2013-04-20 03:55:00,54.1,51.2,29.62,West,278,0.0,4.0,90,0.00,OVC,,0.20,WeatherDisplay:10.37,2013-04-20 07:55:00,
2013-04-20 04:00:00,53.6,50.8,29.62,West,270,2.0,5.0,90,0.00,OVC,,0.20,WeatherDisplay:10.37,2013-04-20 08:00:00,
2013-04-20 04:05:00,53.2,50.3,29.62,WNW,286,0.0,5.0,90,0.01,-RA,,0.21,WeatherDisplay:10.37,2013-04-20 08:05:00,
2013-04-20 04:10:00,52.8,49.9,29.63,West,275,2.0,4.0,90,0.00,-RA,,0.21,WeatherDisplay:10.37,2013-04-20 08:10:00,
2013-04-20 04:15:00,52.4,49.8,29.63,West,272,1.0,2.0,91,0.00,-RA,,0.21,WeatherDisplay:10.37,2013-04-20 08:15:00,
2013-04-20 04:20:00,52.1,49.6,29.64,West,280,0.0,3.0,91,0.00,-RA,,0.21,WeatherDisplay:10.37,2013-04-20 08:20:00,
2013-04-20 04:25:00,51.7,49.2,29.63,West,280,1.0,4.0,91,0.01,-RA,,0.22,WeatherDisplay:10.37,2013-04-20 08:25:00,
2013-04-20 04:30:00,51.5,49.3,29.63,NW,316,0.0,2.0,92,0.00,-RA,,0.22,WeatherDisplay:10.37,2013-04-20 08:30:00,
2013-04-20 04:35:00,51.4,49.4,29.63,NW,309,0.0,1.0,93,0.00,-RA,,0.22,WeatherDisplay:10.37,2013-04-20 08:35:00,
2013-04-20 04:40:00,51.3,49.3,29.62,WNW,302,0.0,1.0,93,0.01,-RA,,0.23,WeatherDisplay:10.37,2013-04-20 08:40:00,
2013-04-20 04:45:00,51.3,49.3,29.63,WNW,302,0.0,2.0,93,0.01,-RA,,0.24,WeatherDisplay:10.37,2013-04-20 08:45:00,
2013-04-20 04:50:00,51.2,49.5,29.63,WNW,293,3.0,5.0,94,0.00,-RA,,0.24,WeatherDisplay:10.37,2013-04-20 08:50:00,
2013-04-20 04:55:00,50.9,48.6,29.64,WNW,289,2.0,8.0,92,0.01,-RA,,0.25,WeatherDisplay:10.37,2013-04-20 08:55:00,
2013-04-20 05:00:00,50.3,47.8,29.64,WNW,297,1.0,5.0,91,0.00,-RA,,0.25,WeatherDisplay:10.37,2013-04-20 09:00:00,
2013-04-20 05:05:00,50.0,47.5,29.64,NW,304,1.0,5.0,91,0.01,-RA,,0.26,WeatherDisplay:10.37,2013-04-20 09:05:00,
2013-04-20 05:10:00,49.6,47.1,29.66,West,276,5.0,7.0,91,0.01,-RA,,0.27,WeatherDisplay:10.37,2013-04-20 09:10:00,
2013-04-20 05:15:00,49.1,46.6,29.67,WNW,293,1.0,7.0,91,0.01,-RA,,0.28,WeatherDisplay:10.37,2013-04-20 09:15:00,
2013-04-20 05:20:00,48.8,46.6,29.66,WNW,290,0.0,4.0,92,0.02,-RA,,0.30,WeatherDisplay:10.37,2013-04-20 09:20:00,
2013-04-20 05:25:00,48.6,46.4,29.66,WNW,298,0.0,3.0,92,0.01,-RA,,0.31,WeatherDisplay:10.37,2013-04-20 09:25:00,
2013-04-20 05:30:00,48.3,46.1,29.66,NW,314,0.0,3.0,92,0.01,-RA,,0.32,WeatherDisplay:10.37,2013-04-20 09:30:00,
2013-04-20 05:35:00,48.0,45.8,29.66,NW,307,1.0,5.0,92,0.01,-RA,,0.33,WeatherDisplay:10.37,2013-04-20 09:35:00,
2013-04-20 05:40:00,47.8,45.6,29.66,WNW,303,1.0,4.0,92,0.02,-RA,,0.35,WeatherDisplay:10.37,2013-04-20 09:40:00,
2013-04-20 05:45:00,47.6,45.7,29.66,WNW,299,1.0,3.0,93,0.00,-RA,,0.35,WeatherDisplay:10.37,2013-04-20 09:45:00,
2013-04-20 05:50:00,47.4,45.5,29.65,NW,326,2.0,5.0,93,0.02,-RA,,0.37,WeatherDisplay:10.37,2013-04-20 09:50:00,
2013-04-20 05:55:00,47.3,45.4,29.65,NNW,339,0.0,3.0,93,0.01,-RA,,0.38,WeatherDisplay:10.37,2013-04-20 09:55:00,
2013-04-20 06:00:00,47.2,45.3,29.66,NW,310,0.0,2.0,93,0.01,-RA,,0.39,WeatherDisplay:10.37,2013-04-20 10:00:00,
2013-04-20 06:05:00,47.1,45.5,29.67,West,281,0.0,2.0,94,0.00,RA,,0.39,WeatherDisplay:10.37,2013-04-20 10:05:00,
2013-04-20 06:10:00,47.0,45.4,29.67,West,268,0.0,1.0,94,0.00,OVC,,0.39,WeatherDisplay:10.37,2013-04-20 10:10:00,
2013-04-20 06:15:00,46.9,45.3,29.70,WSW,246,0.0,3.0,94,0.01,RA,,0.40,WeatherDisplay:10.37,2013-04-20 10:15:00,
2013-04-20 06:20:00,46.8,45.1,29.70,WSW,240,0.0,2.0,94,0.01,RA,,0.41,WeatherDisplay:10.37,2013-04-20 10:20:00,
2013-04-20 06:25:00,46.6,45.0,29.70,WSW,245,1.0,5.0,94,0.02,RA,,0.43,WeatherDisplay:10.37,2013-04-20 10:25:00,
2013-04-20 06:30:00,46.6,44.9,29.70,West,259,0.0,4.0,94,0.00,RA,,0.43,WeatherDisplay:10.37,2013-04-20 10:30:00,
2013-04-20 06:35:00,46.5,44.8,29.70,WNW,285,0.0,3.0,94,0.00,OVC,,0.43,WeatherDisplay:10.37,2013-04-20 10:35:00,
2013-04-20 06:40:00,46.4,44.7,29.70,WNW,285,0.0,4.0,94,0.00,OVC,,0.43,WeatherDisplay:10.37,2013-04-20 10:40:00,
2013-04-20 06:45:00,46.1,44.2,29.70,West,279,2.0,5.0,93,0.01,RA,,0.44,WeatherDisplay:10.37,2013-04-20 10:45:00,
2013-04-20 06:50:00,46.0,43.8,29.71,West,279,3.0,7.0,92,0.00,RA,,0.44,WeatherDisplay:10.37,2013-04-20 10:50:00,
2013-04-20 06:55:00,45.8,43.6,29.71,West,281,0.0,5.0,92,0.00,OVC,,0.44,WeatherDisplay:10.37,2013-04-20 10:55:00,
2013-04-20 07:00:00,45.6,43.4,29.71,West,273,1.0,5.0,92,0.00,OVC,,0.44,WeatherDisplay:10.37,2013-04-20 11:00:00,
2013-04-20 07:05:00,45.5,43.3,29.72,West,260,1.0,3.0,92,0.00,-RA,,0.44,WeatherDisplay:10.37,2013-04-20 11:05:00,
2013-04-20 07:10:00,45.3,43.2,29.72,WNW,290,1.0,7.0,92,0.00,-RA,,0.44,WeatherDisplay:10.37,2013-04-20 11:10:00,
2013-04-20 07:20:00,45.2,43.0,29.74,WNW,285,0.0,4.0,92,0.01,-RA,,0.46,WeatherDisplay:10.37,2013-04-20 11:20:00,
2013-04-20 07:25:00,45.1,42.9,29.74,West,274,0.0,3.0,92,0.00,-RA,,0.46,WeatherDisplay:10.37,2013-04-20 11:25:00,
2013-04-20 07:30:00,45.0,43.1,29.75,West,260,0.0,1.0,93,0.00,-RA,,0.46,WeatherDisplay:10.37,2013-04-20 11:30:00,
2013-04-20 07:35:00,45.0,43.1,29.75,WSW,255,0.0,4.0,93,0.01,-RA,,0.47,WeatherDisplay:10.37,2013-04-20 11:35:00,
2013-04-20 07:40:00,44.9,42.7,29.75,West,278,1.0,5.0,92,0.00,-RA,,0.47,WeatherDisplay:10.37,2013-04-20 11:40:00,
2013-04-20 07:45:00,44.9,43.0,29.76,WNW,283,1.0,3.0,93,0.00,-RA,,0.47,WeatherDisplay:10.37,2013-04-20 11:45:00,
2013-04-20 07:50:00,44.8,42.9,29.76,WNW,289,0.0,4.0,93,0.00,-RA,,0.47,WeatherDisplay:10.37,2013-04-20 11:50:00,
2013-04-20 07:55:00,44.8,42.6,29.76,WNW,297,0.0,6.0,92,0.00,-RA,,0.47,WeatherDisplay:10.37,2013-04-20 11:55:00,
2013-04-20 08:00:00,44.9,43.0,29.76,WNW,297,0.0,1.0,93,0.00,-RA,,0.47,WeatherDisplay:10.37,2013-04-20 12:00:00,
2013-04-20 08:05:00,44.9,43.0,29.76,WNW,295,0.0,2.0,93,0.00,OVC,,0.47,WeatherDisplay:10.37,2013-04-20 12:05:00,
2013-04-20 08:10:00,45.0,43.1,29.76,WSW,254,1.0,4.0,93,0.00,OVC,,0.47,WeatherDisplay:10.37,2013-04-20 12:10:00,
2013-04-20 08:15:00,45.0,43.1,29.76,WSW,252,0.0,2.0,93,0.00,OVC,,0.47,WeatherDisplay:10.37,2013-04-20 12:15:00,
2013-04-20 08:20:00,45.0,43.1,29.75,West,272,0.0,3.0,93,0.00,OVC,,0.47,WeatherDisplay:10.37,2013-04-20 12:20:00,
2013-04-20 08:25:00,45.0,42.8,29.77,West,280,0.0,4.0,92,0.00,OVC,,0.47,WeatherDisplay:10.37,2013-04-20 12:25:00,
2013-04-20 08:30:00,45.0,43.1,29.77,West,279,0.0,2.0,93,0.00,OVC,,0.47,WeatherDisplay:10.37,2013-04-20 12:30:00,
2013-04-20 08:35:00,45.0,42.8,29.77,WNW,289,0.0,0.0,92,0.00,OVC,,0.47,WeatherDisplay:10.37,2013-04-20 12:35:00,
2013-04-20 08:40:00,45.1,42.9,29.78,WNW,294,0.0,3.0,92,0.00,OVC,,0.47,WeatherDisplay:10.37,2013-04-20 12:40:00,
2013-04-20 08:45:00,45.2,43.0,29.77,West,275,0.0,0.0,92,0.00,OVC,,0.47,WeatherDisplay:10.37,2013-04-20 12:45:00,
2013-04-20 08:50:00,45.3,43.1,29.78,WNW,298,0.0,0.0,92,0.00,OVC,,0.47,WeatherDisplay:10.37,2013-04-20 12:50:00,
2013-04-20 08:55:00,45.4,43.5,29.77,WNW,292,0.0,0.0,93,0.00,OVC,,0.47,WeatherDisplay:10.37,2013-04-20 12:55:00,
2013-04-20 09:00:00,45.6,43.4,29.77,West,275,0.0,0.0,92,0.00,OVC,,0.47,WeatherDisplay:10.37,2013-04-20 13:00:00,
2013-04-20 09:05:00,45.6,43.1,29.77,West,268,0.0,3.0,91,0.00,OVC,,0.47,WeatherDisplay:10.37,2013-04-20 13:05:00,
2013-04-20 09:10:00,45.8,43.3,29.77,West,260,0.0,3.0,91,0.00,OVC,,0.47,WeatherDisplay:10.37,2013-04-20 13:10:00,
2013-04-20 09:15:00,46.0,43.5,29.77,West,261,2.0,6.0,91,0.00,OVC,,0.47,WeatherDisplay:10.37,2013-04-20 13:15:00,
2013-04-20 09:20:00,46.1,43.3,29.77,West,266,0.0,5.0,90,0.00,OVC,,0.47,WeatherDisplay:10.37,2013-04-20 13:20:00,
2013-04-20 09:30:00,46.4,43.6,29.76,West,260,1.0,3.0,90,0.00,OVC,,0.47,WeatherDisplay:10.37,2013-04-20 13:30:00,
2013-04-20 09:35:00,46.5,42.9,29.77,WNW,295,1.0,9.0,87,0.00,OVC,,0.47,WeatherDisplay:10.37,2013-04-20 13:35:00,
2013-04-20 09:40:00,46.8,43.4,29.77,WNW,288,2.0,6.0,88,0.00,OVC,,0.47,WeatherDisplay:10.37,2013-04-20 13:40:00,
2013-04-20 09:45:00,46.9,43.2,29.77,WNW,290,1.0,6.0,87,0.00,OVC,,0.47,WeatherDisplay:10.37,2013-04-20 13:45:00,
2013-04-20 09:50:00,47.0,43.0,29.77,West,274,1.0,5.0,86,0.00,OVC,,0.47,WeatherDisplay:10.37,2013-04-20 13:50:00,
2013-04-20 09:55:00,47.0,42.7,29.78,WNW,285,0.0,5.0,85,0.00,OVC,,0.47,WeatherDisplay:10.37,2013-04-20 13:55:00,
2013-04-20 10:00:00,47.0,42.4,29.78,West,266,1.0,4.0,84,0.00,OVC,,0.47,WeatherDisplay:10.37,2013-04-20 14:00:00,
2013-04-20 10:05:00,47.1,42.2,29.78,WSW,251,0.0,4.0,83,0.00,SCT,,0.47,WeatherDisplay:10.37,2013-04-20 14:05:00,
2013-04-20 10:10:00,47.3,42.7,29.78,WNW,284,0.0,1.0,84,0.00,SCT,,0.47,WeatherDisplay:10.37,2013-04-20 14:10:00,
2013-04-20 10:15:00,47.6,42.4,29.78,West,268,0.0,9.0,82,0.00,SCT,,0.47,WeatherDisplay:10.37,2013-04-20 14:15:00,
2013-04-20 10:20:00,47.8,41.3,29.79,West,266,2.0,7.0,78,0.00,SCT,,0.47,WeatherDisplay:10.37,2013-04-20 14:20:00,
2013-04-20 10:25:00,48.0,41.8,29.79,West,276,0.0,5.0,79,0.00,SCT,,0.47,WeatherDisplay:10.37,2013-04-20 14:25:00,
2013-04-20 10:30:00,48.2,41.3,29.80,West,264,2.0,9.0,77,0.00,SCT,,0.47,WeatherDisplay:10.37,2013-04-20 14:30:00,
2013-04-20 10:35:00,48.7,42.5,29.80,WSW,255,1.0,8.0,79,0.00,SCT,,0.47,WeatherDisplay:10.37,2013-04-20 14:35:00,
2013-04-20 10:40:00,49.5,40.9,29.80,West,270,3.0,10.0,72,0.00,SCT,,0.47,WeatherDisplay:10.37,2013-04-20 14:40:00,
2013-04-20 10:45:00,50.0,41.0,29.80,West,280,2.0,8.0,71,0.00,SCT,,0.47,WeatherDisplay:10.37,2013-04-20 14:45:00,
2013-04-20 10:50:00,50.4,42.1,29.81,West,272,3.0,6.0,73,0.00,SCT,,0.47,WeatherDisplay:10.37,2013-04-20 14:50:00,
2013-04-20 10:55:00,50.7,42.0,29.81,West,269,2.0,8.0,72,0.00,SCT,,0.47,WeatherDisplay:10.37,2013-04-20 14:55:00,
2013-04-20 11:00:00,50.9,40.7,29.81,West,269,2.0,5.0,68,0.00,SCT,,0.47,WeatherDisplay:10.37,2013-04-20 15:00:00,
2013-04-20 11:05:00,51.0,40.8,29.81,West,267,2.0,8.0,68,0.00,OVC,,0.47,WeatherDisplay:10.37,2013-04-20 15:05:00,
2013-04-20 11:10:00,51.3,40.7,29.82,West,261,2.0,8.0,67,0.00,OVC,,0.47,WeatherDisplay:10.37,2013-04-20 15:10:00,
2013-04-20 11:15:00,51.4,40.8,29.82,West,265,0.0,12.0,67,0.00,OVC,,0.47,WeatherDisplay:10.37,2013-04-20 15:15:00,
2013-04-20 11:20:00,51.5,40.9,29.82,West,263,1.0,3.0,67,0.00,BKN,,0.47,WeatherDisplay:10.37,2013-04-20 15:20:00,
2013-04-20 11:25:00,51.7,40.7,29.82,West,281,3.0,7.0,66,0.00,BKN,,0.47,WeatherDisplay:10.37,2013-04-20 15:25:00,
2013-04-20 11:30:00,51.9,39.3,29.82,WNW,301,1.0,8.0,62,0.00,BKN,,0.47,WeatherDisplay:10.37,2013-04-20 15:30:00,
2013-04-20 11:40:00,52.3,40.4,29.83,West,261,3.0,8.0,64,0.00,BKN,,0.47,WeatherDisplay:10.37,2013-04-20 15:40:00,
2013-04-20 11:45:00,52.2,40.4,29.83,West,272,2.0,10.0,64,0.00,BKN,,0.47,WeatherDisplay:10.37,2013-04-20 15:45:00,
2013-04-20 11:50:00,52.2,38.3,29.83,West,264,2.0,7.0,59,0.00,BKN,,0.47,WeatherDisplay:10.37,2013-04-20 15:50:00,
2013-04-20 11:55:00,52.4,40.1,29.83,WSW,243,2.0,6.0,63,0.00,BKN,,0.47,WeatherDisplay:10.37,2013-04-20 15:55:00,
2013-04-20 12:00:00,52.6,39.5,29.83,SW,228,3.0,9.0,61,0.00,BKN,,0.47,WeatherDisplay:10.37,2013-04-20 16:00:00,
2013-04-20 12:05:00,52.8,39.3,29.83,WSW,239,2.0,5.0,60,0.00,BKN,,0.47,WeatherDisplay:10.37,2013-04-20 16:05:00,
2013-04-20 12:10:00,53.1,40.0,29.83,WSW,248,2.0,6.0,61,0.00,BKN,,0.47,WeatherDisplay:10.37,2013-04-20 16:10:00,
2013-04-20 12:15:00,53.4,39.4,29.83,WSW,243,3.0,6.0,59,0.00,BKN,,0.47,WeatherDisplay:10.37,2013-04-20 16:15:00,
2013-04-20 12:20:00,53.3,39.8,29.83,WSW,250,1.0,7.0,60,0.00,BKN,,0.47,WeatherDisplay:10.37,2013-04-20 16:20:00,
2013-04-20 12:25:00,53.5,37.3,29.83,West,264,5.0,12.0,54,0.00,BKN,,0.47,WeatherDisplay:10.37,2013-04-20 16:25:00,
2013-04-20 12:30:00,53.6,37.8,29.83,WSW,249,0.0,7.0,55,0.00,BKN,,0.47,WeatherDisplay:10.37,2013-04-20 16:30:00,
2013-04-20 12:35:00,54.0,36.8,29.83,West,261,5.0,9.0,52,0.00,BKN,,0.47,WeatherDisplay:10.37,2013-04-20 16:35:00,
2013-04-20 12:40:00,54.1,37.3,29.83,WSW,257,3.0,9.0,53,0.00,BKN,,0.47,WeatherDisplay:10.37,2013-04-20 16:40:00,
2013-04-20 12:45:00,53.9,35.7,29.84,SW,234,3.0,8.0,50,0.00,BKN,,0.47,WeatherDisplay:10.37,2013-04-20 16:45:00,
2013-04-20 12:50:00,53.9,35.7,29.84,SW,232,3.0,8.0,50,0.00,BKN,,0.47,WeatherDisplay:10.37,2013-04-20 16:50:00,
2013-04-20 12:55:00,53.7,35.5,29.84,WSW,244,5.0,9.0,50,0.00,BKN,,0.47,WeatherDisplay:10.37,2013-04-20 16:55:00,
2013-04-20 13:00:00,53.7,35.5,29.84,WSW,246,2.0,8.0,50,0.00,BKN,,0.47,WeatherDisplay:10.37,2013-04-20 17:00:00,
2013-04-20 13:05:00,53.9,35.6,29.84,WSW,250,3.0,7.0,50,0.00,BKN,,0.47,WeatherDisplay:10.37,2013-04-20 17:05:00,
2013-04-20 13:10:00,54.1,36.4,29.84,West,273,3.0,7.0,51,0.00,BKN,,0.47,WeatherDisplay:10.37,2013-04-20 17:10:00,
2013-04-20 13:15:00,54.1,36.4,29.84,West,278,3.0,12.0,51,0.00,BKN,,0.47,WeatherDisplay:10.37,2013-04-20 17:15:00,
2013-04-20 13:20:00,54.0,35.2,29.84,WSW,246,3.0,8.0,49,0.00,BKN,,0.47,WeatherDisplay:10.37,2013-04-20 17:20:00,
2013-04-20 13:25:00,54.0,35.3,29.84,SW,226,2.0,7.0,49,0.00,BKN,,0.47,WeatherDisplay:10.37,2013-04-20 17:25:00,
2013-04-20 13:30:00,54.2,35.4,29.84,SW,235,2.0,9.0,49,0.00,BKN,,0.47,WeatherDisplay:10.37,2013-04-20 17:30:00,
2013-04-20 13:35:00,54.2,34.4,29.84,WSW,242,5.0,9.0,47,0.00,BKN,,0.47,WeatherDisplay:10.37,2013-04-20 17:35:00,
2013-04-20 13:40:00,54.2,35.9,29.84,WSW,243,2.0,8.0,50,0.00,BKN,,0.47,WeatherDisplay:10.37,2013-04-20 17:40:00,
2013-04-20 13:45:00,54.4,34.6,29.84,WSW,252,2.0,5.0,47,0.00,BKN,,0.47,WeatherDisplay:10.37,2013-04-20 17:45:00,
2013-04-20 13:50:00,54.5,34.7,29.84,West,261,3.0,9.0,47,0.00,BKN,,0.47,WeatherDisplay:10.37,2013-04-20 17:50:00,
2013-04-20 13:55:00,54.4,35.1,29.85,West,270,6.0,12.0,48,0.00,BKN,,0.47,WeatherDisplay:10.37,2013-04-20 17:55:00,
2013-04-20 14:00:00,54.6,35.8,29.84,West,264,3.0,6.0,49,0.00,BKN,,0.47,WeatherDisplay:10.37,2013-04-20 18:00:00,
2013-04-20 14:05:00,54.7,34.3,29.84,West,263,2.0,12.0,46,0.00,BKN,,0.47,WeatherDisplay:10.37,2013-04-20 18:05:00,
2013-04-20 14:10:00,54.7,35.4,29.85,West,265,6.0,12.0,48,0.00,BKN,,0.47,WeatherDisplay:10.37,2013-04-20 18:10:00,
2013-04-20 14:15:00,54.9,35.5,29.85,West,264,6.0,12.0,48,0.00,BKN,,0.47,WeatherDisplay:10.37,2013-04-20 18:15:00,
2013-04-20 14:20:00,55.0,35.1,29.85,West,267,5.0,9.0,47,0.00,SCT,,0.47,WeatherDisplay:10.37,2013-04-20 18:20:00,
2013-04-20 14:25:00,54.7,34.3,29.85,West,275,3.0,15.0,46,0.00,SCT,,0.47,WeatherDisplay:10.37,2013-04-20 18:25:00,
2013-04-20 14:30:00,54.6,34.8,29.86,West,271,3.0,12.0,47,0.00,SCT,,0.47,WeatherDisplay:10.37,2013-04-20 18:30:00,
2013-04-20 14:35:00,54.3,34.5,29.86,West,277,3.0,8.0,47,0.00,SCT,,0.47,WeatherDisplay:10.37,2013-04-20 18:35:00,
2013-04-20 14:40:00,54.2,33.3,29.86,WNW,286,2.0,8.0,45,0.00,SCT,,0.47,WeatherDisplay:10.37,2013-04-20 18:40:00,
2013-04-20 14:45:00,54.1,33.8,29.86,WNW,288,1.0,17.0,46,0.00,SCT,,0.47,WeatherDisplay:10.37,2013-04-20 18:45:00,
2013-04-20 14:50:00,53.9,33.6,29.86,West,262,3.0,17.0,46,0.00,SCT,,0.47,WeatherDisplay:10.37,2013-04-20 18:50:00,
2013-04-20 14:55:00,54.0,33.1,29.86,WSW,257,2.0,7.0,45,0.00,SCT,,0.47,WeatherDisplay:10.37,2013-04-20 18:55:00,
2013-04-20 15:00:00,53.9,33.0,29.86,West,266,5.0,10.0,45,0.00,SCT,,0.47,WeatherDisplay:10.37,2013-04-20 19:00:00,
2013-04-20 15:05:00,54.0,33.7,29.86,West,270,2.0,10.0,46,0.00,SCT,,0.47,WeatherDisplay:10.37,2013-04-20 19:05:00,
2013-04-20 15:10:00,54.0,34.2,29.87,West,278,5.0,17.0,47,0.00,SCT,,0.47,WeatherDisplay:10.37,2013-04-20 19:10:00,
2013-04-20 15:15:00,53.8,32.9,29.87,West,269,2.0,17.0,45,0.00,SCT,,0.47,WeatherDisplay:10.37,2013-04-20 19:15:00,
2013-04-20 15:20:00,53.8,34.0,29.87,West,264,2.0,10.0,47,0.00,SCT,,0.47,WeatherDisplay:10.37,2013-04-20 19:20:00,
2013-04-20 15:25:00,54.0,33.7,29.87,WNW,297,3.0,17.0,46,0.00,SCT,,0.47,WeatherDisplay:10.37,2013-04-20 19:25:00,
2013-04-20 15:30:00,54.1,33.2,29.87,WNW,288,5.0,7.0,45,0.00,SCT,,0.47,WeatherDisplay:10.37,2013-04-20 19:30:00,
2013-04-20 15:35:00,54.0,32.6,29.87,WSW,255,3.0,17.0,44,0.00,SCT,,0.47,WeatherDisplay:10.37,2013-04-20 19:35:00,
2013-04-20 15:40:00,53.9,33.6,29.88,WSW,240,1.0,17.0,46,0.00,SCT,,0.47,WeatherDisplay:10.37,2013-04-20 19:40:00,
2013-04-20 15:45:00,54.0,33.2,29.88,West,274,5.0,17.0,45,0.00,SCT,,0.47,WeatherDisplay:10.37,2013-04-20 19:45:00,
2013-04-20 15:50:00,54.2,33.3,29.88,WNW,294,1.0,7.0,45,0.00,SCT,,0.47,WeatherDisplay:10.37,2013-04-20 19:50:00,
2013-04-20 15:55:00,54.5,35.2,29.88,WNW,293,1.0,7.0,48,0.00,SCT,,0.47,WeatherDisplay:10.37,2013-04-20 19:55:00,
2013-04-20 16:00:00,54.8,33.8,29.88,WNW,286,2.0,8.0,45,0.00,SCT,,0.47,WeatherDisplay:10.37,2013-04-20 20:00:00,
2013-04-20 16:05:00,54.9,35.0,29.88,West,274,0.0,4.0,47,0.00,BKN,,0.47,WeatherDisplay:10.37,2013-04-20 20:05:00,
2013-04-20 16:10:00,55.1,35.2,29.88,NW,306,2.0,7.0,47,0.00,BKN,,0.47,WeatherDisplay:10.37,2013-04-20 20:10:00,
2013-04-20 16:15:00,55.2,33.6,29.89,WNW,282,1.0,17.0,44,0.00,BKN,,0.47,WeatherDisplay:10.37,2013-04-20 20:15:00,
2013-04-20 16:20:00,55.2,35.3,29.89,West,261,1.0,5.0,47,0.00,BKN,,0.47,WeatherDisplay:10.37,2013-04-20 20:20:00,
2013-04-20 16:25:00,55.0,34.0,29.90,WNW,289,5.0,17.0,45,0.00,BKN,,0.47,WeatherDisplay:10.37,2013-04-20 20:25:00,
2013-04-20 16:30:00,54.8,33.3,29.90,WNW,295,5.0,7.0,44,0.00,BKN,,0.47,WeatherDisplay:10.37,2013-04-20 20:30:00,
2013-04-20 16:35:00,54.8,33.8,29.90,West,270,1.0,17.0,45,0.00,BKN,,0.47,WeatherDisplay:10.37,2013-04-20 20:35:00,
2013-04-20 16:40:00,54.5,33.6,29.91,WSW,239,3.0,7.0,45,0.00,BKN,,0.47,WeatherDisplay:10.37,2013-04-20 20:40:00,
2013-04-20 16:45:00,54.4,32.9,29.91,West,276,2.0,17.0,44,0.00,BKN,,0.47,WeatherDisplay:10.37,2013-04-20 20:45:00,
2013-04-20 16:50:00,54.5,33.0,29.91,NW,304,2.0,5.0,44,0.00,BKN,,0.47,WeatherDisplay:10.37,2013-04-20 20:50:00,
2013-04-20 16:55:00,54.6,33.7,29.91,WNW,295,2.0,5.0,45,0.00,BKN,,0.47,WeatherDisplay:10.37,2013-04-20 20:55:00,
2013-04-20 17:00:00,54.9,34.0,29.91,WNW,292,2.0,5.0,45,0.00,BKN,,0.47,WeatherDisplay:10.37,2013-04-20 21:00:00,
2013-04-20 17:05:00,55.4,31.5,29.92,WSW,257,1.0,7.0,40,0.00,SCT,,0.47,WeatherDisplay:10.37,2013-04-20 21:05:00,
2013-04-20 17:10:00,55.7,30.4,29.92,West,268,7.0,13.0,38,0.00,SCT,,0.47,WeatherDisplay:10.37,2013-04-20 21:10:00,
2013-04-20 17:15:00,55.4,30.2,29.92,WSW,241,6.0,10.0,38,0.00,SCT,,0.47,WeatherDisplay:10.37,2013-04-20 21:15:00,
2013-04-20 17:20:00,55.4,30.2,29.93,West,259,5.0,12.0,38,0.00,SCT,,0.47,WeatherDisplay:10.37,2013-04-20 21:20:00,
2013-04-20 17:25:00,55.4,30.2,29.93,West,263,1.0,12.0,38,0.00,SCT,,0.47,WeatherDisplay:10.37,2013-04-20 21:25:00,
2013-04-20 17:30:00,55.7,30.4,29.93,WSW,257,5.0,17.0,38,0.00,SCT,,0.47,WeatherDisplay:10.37,2013-04-20 21:30:00,
2013-04-20 17:35:00,55.6,30.4,29.94,West,278,6.0,17.0,38,0.00,SCT,,0.47,WeatherDisplay:10.37,2013-04-20 21:35:00,
2013-04-20 17:40:00,55.1,30.6,29.94,West,281,2.0,8.0,39,0.00,SCT,,0.47,WeatherDisplay:10.37,2013-04-20 21:40:00,
2013-04-20 17:45:00,54.8,30.3,29.94,WNW,293,5.0,17.0,39,0.00,SCT,,0.47,WeatherDisplay:10.37,2013-04-20 21:45:00,
2013-04-20 17:50:00,54.6,30.7,29.94,West,276,3.0,7.0,40,0.00,SCT,,0.47,WeatherDisplay:10.37,2013-04-20 21:50:00,
2013-04-20 17:55:00,54.3,29.2,29.95,West,275,2.0,9.0,38,0.00,SCT,,0.47,WeatherDisplay:10.37,2013-04-20 21:55:00,
2013-04-20 18:00:00,54.2,30.4,29.95,West,261,2.0,17.0,40,0.00,SCT,,0.47,WeatherDisplay:10.37,2013-04-20 22:00:00,
2013-04-20 18:05:00,54.1,29.7,29.95,West,264,0.0,6.0,39,0.00,SCT,,0.47,WeatherDisplay:10.37,2013-04-20 22:05:00,
2013-04-20 18:10:00,54.1,30.9,29.96,West,280,2.0,17.0,41,0.00,SCT,,0.47,WeatherDisplay:10.37,2013-04-20 22:10:00,
2013-04-20 18:15:00,54.1,29.7,29.96,WNW,284,3.0,17.0,39,0.00,SCT,,0.47,WeatherDisplay:10.37,2013-04-20 22:15:00,
2013-04-20 18:20:00,54.1,29.7,29.97,WNW,285,1.0,8.0,39,0.00,SCT,,0.47,WeatherDisplay:10.37,2013-04-20 22:20:00,
2013-04-20 18:25:00,53.9,28.8,29.97,WNW,284,3.0,7.0,38,0.00,SCT,,0.47,WeatherDisplay:10.37,2013-04-20 22:25:00,
2013-04-20 18:30:00,53.7,29.3,29.97,WNW,283,5.0,9.0,39,0.00,SCT,,0.47,WeatherDisplay:10.37,2013-04-20 22:30:00,
2013-04-20 18:35:00,53.5,31.0,29.97,WSW,258,2.0,17.0,42,0.00,SCT,,0.47,WeatherDisplay:10.37,2013-04-20 22:35:00,
2013-04-20 18:40:00,53.3,30.1,29.97,West,265,3.0,8.0,41,0.00,SCT,,0.47,WeatherDisplay:10.37,2013-04-20 22:40:00,
2013-04-20 18:45:00,53.0,29.3,29.98,West,276,5.0,17.0,40,0.00,SCT,,0.47,WeatherDisplay:10.37,2013-04-20 22:45:00,
2013-04-20 18:50:00,52.7,28.4,29.99,WNW,294,5.0,10.0,39,0.00,SCT,,0.47,WeatherDisplay:10.37,2013-04-20 22:50:00,
2013-04-20 18:55:00,52.5,28.2,29.99,West,281,3.0,7.0,39,0.00,SCT,,0.47,WeatherDisplay:10.37,2013-04-20 22:55:00,
2013-04-20 19:00:00,52.3,28.6,29.99,West,280,5.0,17.0,40,0.00,SCT,,0.47,WeatherDisplay:10.37,2013-04-20 23:00:00,
2013-04-20 19:05:00,52.1,28.5,30.00,West,281,3.0,9.0,40,0.00,SCT,,0.47,WeatherDisplay:10.37,2013-04-20 23:05:00,
2013-04-20 19:10:00,51.8,28.8,30.01,West,269,1.0,17.0,41,0.00,SCT,,0.47,WeatherDisplay:10.37,2013-04-20 23:10:00,
2013-04-20 19:15:00,51.5,28.6,30.01,West,264,3.0,17.0,41,0.00,SCT,,0.47,WeatherDisplay:10.37,2013-04-20 23:15:00,
2013-04-20 19:20:00,51.3,28.4,30.01,WSW,249,2.0,6.0,41,0.00,SCT,,0.47,WeatherDisplay:10.37,2013-04-20 23:20:00,
2013-04-20 19:25:00,51.0,28.1,30.02,SW,229,0.0,5.0,41,0.00,SCT,,0.47,WeatherDisplay:10.37,2013-04-20 23:25:00,
2013-04-20 19:30:00,50.7,28.4,30.02,SW,228,1.0,4.0,42,0.00,SCT,,0.47,WeatherDisplay:10.37,2013-04-20 23:30:00,
2013-04-20 19:35:00,50.5,28.8,30.02,West,273,2.0,4.0,43,0.00,SCT,,0.47,WeatherDisplay:10.37,2013-04-20 23:35:00,
2013-04-20 19:40:00,50.3,28.0,30.03,West,275,1.0,5.0,42,0.00,SCT,,0.47,WeatherDisplay:10.37,2013-04-20 23:40:00,
2013-04-20 19:45:00,50.1,27.8,30.03,West,273,2.0,17.0,42,0.00,SCT,,0.47,WeatherDisplay:10.37,2013-04-20 23:45:00,
2013-04-20 19:50:00,49.9,27.1,30.03,West,268,3.0,17.0,41,0.00,SCT,,0.47,WeatherDisplay:10.37,2013-04-20 23:50:00,
2013-04-20 19:55:00,49.7,26.9,30.04,WNW,283,2.0,17.0,41,0.00,SCT,,0.47,WeatherDisplay:10.37,2013-04-20 23:55:00,
2013-04-20 20:00:00,49.5,27.9,30.04,WNW,294,0.0,17.0,43,0.00,SCT,,0.47,WeatherDisplay:10.37,2013-04-21 00:00:00,
2013-04-20 20:05:00,49.3,27.7,30.05,WNW,291,0.0,5.0,43,0.00,FEW,,0.47,WeatherDisplay:10.37,2013-04-21 00:05:00,
2013-04-20 20:10:00,49.0,27.5,30.05,WNW,295,1.0,7.0,43,0.00,FEW,,0.47,WeatherDisplay:10.37,2013-04-21 00:10:00,
2013-04-20 20:20:00,48.8,26.7,30.06,West,268,0.0,2.0,42,0.00,FEW,,0.47,WeatherDisplay:10.37,2013-04-21 00:20:00,
2013-04-20 20:25:00,48.6,27.6,30.07,WNW,293,0.0,3.0,44,0.00,FEW,,0.47,WeatherDisplay:10.37,2013-04-21 00:25:00,
2013-04-20 20:30:00,48.4,26.9,30.08,WNW,298,0.0,2.0,43,0.00,FEW,,0.47,WeatherDisplay:10.37,2013-04-21 00:30:00,
2013-04-20 20:35:00,48.2,27.3,30.08,WNW,284,1.0,17.0,44,0.00,FEW,,0.47,WeatherDisplay:10.37,2013-04-21 00:35:00,
2013-04-20 20:40:00,48.0,27.1,30.08,WNW,283,2.0,4.0,44,0.00,FEW,,0.47,WeatherDisplay:10.37,2013-04-21 00:40:00,
2013-04-20 20:45:00,47.8,26.9,30.09,WNW,284,1.0,6.0,44,0.00,FEW,,0.47,WeatherDisplay:10.37,2013-04-21 00:45:00,
2013-04-20 20:50:00,47.6,26.7,30.09,WNW,282,2.0,17.0,44,0.00,FEW,,0.47,WeatherDisplay:10.37,2013-04-21 00:50:00,
2013-04-20 20:55:00,47.5,26.1,30.09,West,279,0.0,7.0,43,0.00,FEW,,0.47,WeatherDisplay:10.37,2013-04-21 00:55:00,
2013-04-20 21:00:00,47.4,26.0,30.09,WNW,294,1.0,5.0,43,0.00,FEW,,0.47,WeatherDisplay:10.37,2013-04-21 01:00:00,
2013-04-20 21:05:00,47.3,26.5,30.10,WNW,295,1.0,5.0,44,0.00,FEW,,0.47,WeatherDisplay:10.37,2013-04-21 01:05:00,
2013-04-20 21:10:00,47.2,25.8,30.10,WNW,283,2.0,6.0,43,0.00,FEW,,0.47,WeatherDisplay:10.37,2013-04-21 01:10:00,
2013-04-20 21:15:00,47.1,26.3,30.10,West,276,0.0,4.0,44,0.00,FEW,,0.47,WeatherDisplay:10.37,2013-04-21 01:15:00,
2013-04-20 21:20:00,47.0,26.7,30.11,West,274,1.0,17.0,45,0.00,FEW,,0.47,WeatherDisplay:10.37,2013-04-21 01:20:00,
2013-04-20 21:25:00,46.8,26.0,30.11,West,270,1.0,6.0,44,0.00,FEW,,0.47,WeatherDisplay:10.37,2013-04-21 01:25:00,
2013-04-20 21:30:00,46.7,25.9,30.12,West,280,1.0,7.0,44,0.00,FEW,,0.47,WeatherDisplay:10.37,2013-04-21 01:30:00,
2013-04-20 21:35:00,46.5,26.3,30.11,WNW,289,1.0,3.0,45,0.00,FEW,,0.47,WeatherDisplay:10.37,2013-04-21 01:35:00,
2013-04-20 21:40:00,46.4,26.7,30.12,West,276,1.0,4.0,46,0.00,FEW,,0.47,WeatherDisplay:10.37,2013-04-21 01:40:00,
2013-04-20 21:45:00,46.2,27.0,30.12,West,267,1.0,3.0,47,0.00,FEW,,0.47,WeatherDisplay:10.37,2013-04-21 01:45:00,
2013-04-20 21:55:00,45.8,26.7,30.13,WNW,293,1.0,17.0,47,0.00,FEW,,0.47,WeatherDisplay:10.37,2013-04-21 01:55:00,
2013-04-20 22:00:00,45.6,26.5,30.13,West,280,0.0,17.0,47,0.00,FEW,,0.47,WeatherDisplay:10.37,2013-04-21 02:00:00,
2013-04-20 22:05:00,45.4,26.3,30.13,West,276,1.0,4.0,47,0.00,CLR,,0.47,WeatherDisplay:10.37,2013-04-21 02:05:00,
2013-04-20 22:10:00,45.3,26.7,30.14,WNW,288,1.0,17.0,48,0.00,CLR,,0.47,WeatherDisplay:10.37,2013-04-21 02:10:00,
2013-04-20 22:15:00,45.2,26.1,30.14,WNW,282,1.0,17.0,47,0.00,CLR,,0.47,WeatherDisplay:10.37,2013-04-21 02:15:00,
2013-04-20 22:20:00,45.1,26.6,30.14,WNW,289,1.0,17.0,48,0.00,CLR,,0.47,WeatherDisplay:10.37,2013-04-21 02:20:00,
2013-04-20 22:25:00,44.9,26.4,30.15,WNW,295,1.0,4.0,48,0.00,CLR,,0.47,WeatherDisplay:10.37,2013-04-21 02:25:00,
2013-04-20 22:30:00,44.7,25.7,30.15,WNW,286,5.0,17.0,47,0.00,CLR,,0.47,WeatherDisplay:10.37,2013-04-21 02:30:00,
2013-04-20 22:35:00,44.7,25.2,30.15,WNW,284,1.0,5.0,46,0.00,CLR,,0.47,WeatherDisplay:10.37,2013-04-21 02:35:00,
2013-04-20 22:40:00,44.6,25.6,30.16,WNW,286,1.0,6.0,47,0.00,CLR,,0.47,WeatherDisplay:10.37,2013-04-21 02:40:00,
2013-04-20 22:45:00,44.5,25.5,30.17,WNW,295,0.0,8.0,47,0.00,CLR,,0.47,WeatherDisplay:10.37,2013-04-21 02:45:00,
2013-04-20 22:50:00,44.3,25.8,30.16,WNW,303,1.0,7.0,48,0.00,CLR,,0.47,WeatherDisplay:10.37,2013-04-21 02:50:00,
2013-04-20 22:55:00,44.1,25.6,30.17,NW,305,1.0,7.0,48,0.00,CLR,,0.47,WeatherDisplay:10.37,2013-04-21 02:55:00,
2013-04-20 23:00:00,44.0,26.0,30.17,WNW,296,2.0,7.0,49,0.00,CLR,,0.47,WeatherDisplay:10.37,2013-04-21 03:00:00,
2013-04-20 23:05:00,43.8,24.9,30.17,WNW,300,3.0,8.0,47,0.00,CLR,,0.47,WeatherDisplay:10.37,2013-04-21 03:05:00,
2013-04-20 23:10:00,43.7,25.3,30.17,WNW,295,2.0,7.0,48,0.00,CLR,,0.47,WeatherDisplay:10.37,2013-04-21 03:10:00,
2013-04-20 23:15:00,43.5,24.6,30.17,WNW,284,3.0,10.0,47,0.00,CLR,,0.47,WeatherDisplay:10.37,2013-04-21 03:15:00,
2013-04-20 23:20:00,43.4,23.9,30.18,WNW,296,3.0,8.0,46,0.00,CLR,,0.47,WeatherDisplay:10.37,2013-04-21 03:20:00,
2013-04-20 23:25:00,43.2,24.3,30.18,WNW,290,1.0,17.0,47,0.00,CLR,,0.47,WeatherDisplay:10.37,2013-04-21 03:25:00,
2013-04-20 23:30:00,43.1,24.2,30.18,WNW,285,2.0,8.0,47,0.00,CLR,,0.47,WeatherDisplay:10.37,2013-04-21 03:30:00,
2013-04-20 23:35:00,42.9,24.5,30.18,WNW,285,1.0,5.0,48,0.00,CLR,,0.47,WeatherDisplay:10.37,2013-04-21 03:35:00,
2013-04-20 23:40:00,42.7,23.3,30.19,WNW,283,3.0,17.0,46,0.00,CLR,,0.47,WeatherDisplay:10.37,2013-04-21 03:40:00,
2013-04-20 23:45:00,42.6,24.2,30.19,WNW,288,3.0,8.0,48,0.00,CLR,,0.47,WeatherDisplay:10.37,2013-04-21 03:45:00,
2013-04-20 23:50:00,42.3,22.9,30.20,WNW,286,5.0,9.0,46,0.00,CLR,,0.47,WeatherDisplay:10.37,2013-04-21 03:50:00,
2013-04-20 23:55:00,42.0,23.2,30.20,WNW,288,2.0,17.0,47,0.00,CLR,,0.47,WeatherDisplay:10.37,2013-04-21 03:55:00,